Location: Newark
(16.3678°N, 77.8722°E)
Time: 17:23:00
(UTC+00:00)

S-56A Canister/Altair - Pass Details

Date: 13 December 2019
Orbit: 634 x 2498 km, 38.9° (Epoch: 18 January)

Event Time Altitude Azimuth Distance (km) Brightness Sun altitude
Rises 12:53:16 0° 293° (WNW) 5,552 12.7 -8.7°
Reaches altitude 10° 12:58:00 10° 283° (WNW) 4,244 12.2 -9.8°
Maximum altitude 13:06:30 27° 232° (SW) 2,512 11.0 -11.7°
Drops below altitude 10° 13:12:47 10° 177° (S) 3,043 10.8 -13.1°
Sets 13:15:36 0° 164° (SSE) 3,757 11.1 -13.7°
